Terminal Aerodrome Forecast
Issued by NWS Portland, OR

Home | Current Version | Previous Version | Text Only | Print | Product List | Glossary On
Versions: 1 2 3 4 5 6 7 8 9 10 11 12 13 14 15 16 17 18 19 20 21 22 23 24
000
FTUS46 KPQR 280522
TAFTTD
TAF
KTTD 280522Z 2806/2906 VRB03KT P6SM SCT050 BKN120
     FM281200 10003KT P6SM BKN050 OVC120
     FM281600 26004KT P6SM VCSH BKN030 OVC050
     FM282200 VRB03KT P6SM -RA OVC030=

USA.gov is the U.S. government's official web portal to all federal, state and local government web resources and services.